Terminal Aerodrome Forecast
Issued by NWS North Platte, NE

Home | Current Version | Previous Version | Graphics & Text | Print | Product List | Glossary On
Versions: 1 2 3 4 5 6 7 8 9 10 11 12 13 14
000
FTUS43 KLBF 191100
TAFVTN
TAF
KVTN 191126Z 1912/2012 32017G25KT P6SM OVC035
      TEMPO 1914/1918 SCT025
     FM191800 32015KT P6SM BKN035
     FM200100 32004KT P6SM SCT035
     FM200500 VRB06KT P6SM SCT250=

USA.gov is the U.S. government's official web portal to all federal, state and local government web resources and services.